User: anonymous   Login
Location: Unspecified
(0.0000°N, 0.0000°E)
Time: 02:01:26
(UTC+00:00)
Language:

STARLINK-4517 - Orbit

View from above orbital plane
View from above orbital plane
View from above satellite
View from above satellite

Ground track
Ground track

The orbit is defined by the following mean orbital elements,

1 53390U          26145.35951131 +.00000000 +00000-0 -17256-3 0 00004
2 53390  53.2115 139.9355 0001117  67.9076 292.2035 15.08852998    07
Epoch (UTC): 25 May 2026 08:37:41
Eccentricity: 0.0001117
inclination: 53.2115°
perigee height: 539 km
apogee height: 540 km
right ascension of ascending node: 139.9355°
argument of perigee: 67.9076°
revolutions per day: 15.08852998
mean anomaly at epoch: 292.2035°

The dashed part of the orbit path shows where the satellite is in the earth's shadow,  

DLR